Zurück zum Katalog

QIANFAN-202

AktivKommunikationPO
NORAD 69801·PAYLOAD·🇨🇳 China

Gestartet Jul 4, 2026 von Taiyuan Satellite Launch Center

Loading…

Nächste Überflüge (nächste 24 Stunden)

TLE

AktuellSource: Space-Track

Epoche: Sep 14, 2026, 13:03 UTC

1 69801U 26153B   26257.54430217 -.01865367  00000-0 -12519+1 0  9995
2 69801  88.9973 352.0881 0009224 323.4785  36.5766 14.04540652 10225

Verfolge QIANFAN-202 in Echtzeit mit AllMySat

Download on the App Store